UAL2856 KEWR-KDFW

Flight info

Callsign UAL2856
Flight time N/A
Altitude 32000
Route PARKE J6 MRB/N0445F360 J6 HVQ Q68 SOPIE/N0452F380 Q68 LITTR FEWWW SEEVR4
Aircraft A319/M-SDE3FGHIRWY/LB1

Departure

Time 2026-05-04 20:42
Airport Newark Liberty International Airport (KEWR)

Arrival

Time N/A
Airport Dallas Fort Worth International Airport (KDFW)
Time Latitude Longitude Altitude Speed Heading
2026-05-04 20:25 40.68439 -74.18335 22 ft 0 kts 185°
2026-05-04 20:32 40.68440 -74.18335 22 ft 2 kts 185°
2026-05-04 20:33 40.68466 -74.18332 22 ft 4 kts 181°
2026-05-04 20:33 40.68491 -74.18336 25 ft 4 kts 150°
2026-05-04 20:33 40.68506 -74.18357 25 ft 2 kts 96°
2026-05-04 20:33 40.68506 -74.18359 25 ft 0 kts 95°
2026-05-04 20:36 40.68506 -74.18351 24 ft 3 kts 95°
2026-05-04 20:36 40.68502 -74.18291 22 ft 10 kts 95°
2026-05-04 20:36 40.68489 -74.18193 23 ft 12 kts 110°
2026-05-04 20:36 40.68439 -74.18095 22 ft 14 kts 120°
2026-05-04 20:37 40.68402 -74.17989 22 ft 14 kts 115°
2026-05-04 20:37 40.68359 -74.17873 22 ft 14 kts 116°
2026-05-04 20:37 40.68337 -74.17811 24 ft 6 kts 116°
2026-05-04 20:37 40.68315 -74.17754 22 ft 8 kts 116°
2026-05-04 20:38 40.68288 -74.17661 25 ft 12 kts 92°
2026-05-04 20:38 40.68362 -74.17581 22 ft 18 kts 25°
2026-05-04 20:38 40.68486 -74.17504 24 ft 21 kts 26°
2026-05-04 20:38 40.68624 -74.17416 23 ft 23 kts 26°
2026-05-04 20:39 40.68770 -74.17323 23 ft 24 kts 26°
2026-05-04 20:39 40.68923 -74.17225 22 ft 25 kts 26°
2026-05-04 20:39 40.69082 -74.17124 21 ft 26 kts 26°
2026-05-04 20:39 40.69240 -74.17024 22 ft 25 kts 25°
2026-05-04 20:40 40.69395 -74.16926 22 ft 25 kts 26°
2026-05-04 20:40 40.69545 -74.16831 22 ft 24 kts 26°
2026-05-04 20:40 40.69690 -74.16738 22 ft 21 kts 26°
2026-05-04 20:40 40.69824 -74.16652 21 ft 22 kts 26°
2026-05-04 20:41 40.69961 -74.16565 21 ft 20 kts 26°
2026-05-04 20:41 40.70057 -74.16496 21 ft 11 kts 52°
2026-05-04 20:41 40.70053 -74.16390 20 ft 13 kts 120°
2026-05-04 20:41 40.69974 -74.16396 19 ft 16 kts 206°
2026-05-04 20:42 40.69732 -74.16552 21 ft 66 kts 206°
2026-05-04 20:42 40.69148 -74.16923 22 ft 119 kts 206°
2026-05-04 20:42 40.68259 -74.17476 135 ft 153 kts 207°
2026-05-04 20:42 40.67285 -74.17973 789 ft 153 kts 193°
2026-05-04 20:43 40.66195 -74.17877 1336 ft 162 kts 172°
2026-05-04 20:43 40.65076 -74.17704 1849 ft 164 kts 194°
2026-05-04 20:43 40.64028 -74.18339 2147 ft 177 kts 214°
2026-05-04 20:43 40.62914 -74.19255 2424 ft 203 kts 216°
2026-05-04 20:44 40.61614 -74.20345 2515 ft 237 kts 218°
2026-05-04 20:44 40.60409 -74.21872 3251 ft 245 kts 236°
2026-05-04 20:44 40.59772 -74.23946 4167 ft 249 kts 261°
2026-05-04 20:44 40.59851 -74.26232 5095 ft 253 kts 276°
2026-05-04 20:45 40.60095 -74.28536 5989 ft 256 kts 276°
2026-05-04 20:45 40.60349 -74.30862 6874 ft 258 kts 276°
2026-05-04 20:45 40.60606 -74.33209 7747 ft 260 kts 277°
2026-05-04 20:45 40.60860 -74.35577 8584 ft 263 kts 277°
2026-05-04 20:46 40.61116 -74.37965 9482 ft 264 kts 277°
2026-05-04 20:46 40.61373 -74.40371 10272 ft 267 kts 277°
2026-05-04 20:46 40.61641 -74.42893 10542 ft 290 kts 277°
2026-05-04 20:46 40.61926 -74.45565 10887 ft 305 kts 277°
2026-05-04 20:47 40.62222 -74.48357 11495 ft 310 kts 277°
2026-05-04 20:47 40.62521 -74.51172 12238 ft 312 kts 277°
2026-05-04 20:47 40.62822 -74.54015 12950 ft 315 kts 278°
2026-05-04 20:47 40.63122 -74.56882 13655 ft 318 kts 278°
2026-05-04 20:48 40.63423 -74.59773 14269 ft 320 kts 278°
2026-05-04 20:48 40.63726 -74.62691 14882 ft 323 kts 278°
2026-05-04 20:48 40.64028 -74.65628 15497 ft 325 kts 278°
2026-05-04 20:48 40.64333 -74.68591 16111 ft 328 kts 278°
2026-05-04 20:49 40.64641 -74.71578 16716 ft 331 kts 278°
2026-05-04 20:49 40.64955 -74.74594 17324 ft 334 kts 278°
2026-05-04 20:49 40.65271 -74.77629 17931 ft 336 kts 278°
2026-05-04 20:49 40.65588 -74.80689 18485 ft 339 kts 278°
2026-05-04 20:50 40.65901 -74.83734 18996 ft 341 kts 278°
2026-05-04 20:50 40.66220 -74.86846 19522 ft 344 kts 278°
2026-05-04 20:50 40.66540 -74.89980 20061 ft 347 kts 278°
2026-05-04 20:50 40.66858 -74.93138 20589 ft 349 kts 278°
2026-05-04 20:51 40.67179 -74.96323 21108 ft 352 kts 278°
2026-05-04 20:51 40.67502 -74.99535 21608 ft 355 kts 279°
2026-05-04 20:51 40.67819 -75.02770 22118 ft 358 kts 277°
2026-05-04 20:51 40.67816 -75.06065 22616 ft 364 kts 266°
2026-05-04 20:52 40.67260 -75.09339 23104 ft 371 kts 255°
2026-05-04 20:52 40.66150 -75.12440 23568 ft 379 kts 244°
2026-05-04 20:52 40.64783 -75.15421 23974 ft 381 kts 244°
2026-05-04 20:52 40.63410 -75.18423 24363 ft 384 kts 244°
2026-05-04 20:53 40.62052 -75.21404 24755 ft 386 kts 244°
2026-05-04 20:53 40.60667 -75.24446 25127 ft 389 kts 244°
2026-05-04 20:53 40.59269 -75.27504 25506 ft 391 kts 244°
2026-05-04 20:53 40.57858 -75.30578 25894 ft 394 kts 244°
2026-05-04 20:54 40.56440 -75.33665 26296 ft 396 kts 244°
2026-05-04 20:54 40.55013 -75.36775 26676 ft 398 kts 244°
2026-05-04 20:54 40.53579 -75.39901 27055 ft 400 kts 244°
2026-05-04 20:54 40.52137 -75.43050 27425 ft 403 kts 244°
2026-05-04 20:55 40.50685 -75.46211 27795 ft 406 kts 244°
2026-05-04 20:55 40.49221 -75.49394 28150 ft 408 kts 244°
2026-05-04 20:55 40.47769 -75.52555 28490 ft 411 kts 244°
2026-05-04 20:55 40.46286 -75.55773 28845 ft 413 kts 244°
2026-05-04 20:56 40.44793 -75.59006 29188 ft 415 kts 244°
2026-05-04 20:56 40.43289 -75.62257 29495 ft 418 kts 243°
2026-05-04 20:56 40.41776 -75.65530 29835 ft 421 kts 243°
2026-05-04 20:56 40.40251 -75.68821 30149 ft 423 kts 243°
2026-05-04 20:57 40.38715 -75.72126 30416 ft 426 kts 243°
2026-05-04 20:57 40.37165 -75.75453 30678 ft 428 kts 243°
2026-05-04 20:57 40.35605 -75.78792 30925 ft 431 kts 243°
2026-05-04 20:57 40.34057 -75.82105 31216 ft 432 kts 243°
2026-05-04 20:58 40.32488 -75.85460 31581 ft 431 kts 243°
2026-05-04 20:58 40.30919 -75.88814 31864 ft 432 kts 243°
2026-05-04 20:58 40.27848 -75.95388 31893 ft 414 kts 243°
2026-05-04 20:59 40.24853 -76.01788 31900 ft 411 kts 243°
2026-05-04 20:59 40.21888 -76.08127 31902 ft 411 kts 243°
2026-05-04 21:00 40.18899 -76.14498 31902 ft 411 kts 243°
2026-05-04 21:00 40.15909 -76.20857 31906 ft 410 kts 243°
2026-05-04 21:01 40.12913 -76.27203 31907 ft 410 kts 243°
2026-05-04 21:01 40.09933 -76.33547 31883 ft 410 kts 243°
2026-05-04 21:02 40.07018 -76.39886 31892 ft 410 kts 243°
2026-05-04 21:02 40.04082 -76.46269 31893 ft 410 kts 243°
2026-05-04 21:03 40.01137 -76.52651 31880 ft 410 kts 243°
2026-05-04 21:03 39.98184 -76.59019 31882 ft 410 kts 243°
2026-05-04 21:04 39.95221 -76.65381 31880 ft 410 kts 243°
2026-05-04 21:04 39.92274 -76.71689 31878 ft 410 kts 243°
2026-05-04 21:05 39.89315 -76.78037 31876 ft 410 kts 243°
2026-05-04 21:05 39.86352 -76.84387 31877 ft 410 kts 243°
2026-05-04 21:06 39.83384 -76.90722 31895 ft 410 kts 242°
2026-05-04 21:06 39.80413 -76.97044 31898 ft 410 kts 242°
2026-05-04 21:07 39.77438 -77.03364 31897 ft 410 kts 242°
2026-05-04 21:07 39.74484 -77.09631 31891 ft 409 kts 242°
2026-05-04 21:08 39.71508 -77.15931 31901 ft 409 kts 242°
2026-05-04 21:08 39.68531 -77.22213 31901 ft 408 kts 242°
2026-05-04 21:09 39.65558 -77.28475 31908 ft 407 kts 242°
2026-05-04 21:09 39.62592 -77.34721 31910 ft 406 kts 242°
2026-05-04 21:10 39.59624 -77.40959 31906 ft 406 kts 242°
2026-05-04 21:10 39.56652 -77.47181 31892 ft 406 kts 242°
2026-05-04 21:11 39.53697 -77.53346 31903 ft 405 kts 242°
2026-05-04 21:11 39.50727 -77.59533 31900 ft 404 kts 241°
2026-05-04 21:12 39.47767 -77.65717 31897 ft 404 kts 241°
2026-05-04 21:12 39.44806 -77.71888 31870 ft 404 kts 241°
2026-05-04 21:13 39.41833 -77.78055 31874 ft 404 kts 241°
2026-05-04 21:13 39.38849 -77.84216 31836 ft 404 kts 242°
2026-05-04 21:14 39.36117 -77.90531 31870 ft 401 kts 246°
2026-05-04 21:14 39.33673 -77.96943 31871 ft 400 kts 247°
2026-05-04 21:15 39.31207 -78.03389 31869 ft 400 kts 246°
2026-05-04 21:15 39.28670 -78.09784 31868 ft 400 kts 246°
2026-05-04 21:16 39.26107 -78.16167 31869 ft 400 kts 246°
2026-05-04 21:16 39.23547 -78.22546 31869 ft 401 kts 246°
2026-05-04 21:17 39.20988 -78.28927 31847 ft 400 kts 246°
2026-05-04 21:17 39.18456 -78.35232 31890 ft 397 kts 246°
2026-05-04 21:18 39.15920 -78.41539 31902 ft 395 kts 246°
2026-05-04 21:18 39.13398 -78.47811 31903 ft 394 kts 246°
2026-05-04 21:19 39.10869 -78.54059 31893 ft 393 kts 246°
2026-05-04 21:19 39.08329 -78.60324 32015 ft 399 kts 246°
2026-05-04 21:20 39.07039 -78.63513 32145 ft 405 kts 246°
2026-05-04 21:20 39.05748 -78.66707 32280 ft 410 kts 246°
2026-05-04 21:20 39.04422 -78.69980 32498 ft 414 kts 246°
2026-05-04 21:20 39.03089 -78.73258 32794 ft 415 kts 246°
2026-05-04 21:21 39.01746 -78.76547 33142 ft 415 kts 246°
2026-05-04 21:21 39.00403 -78.79834 33504 ft 415 kts 246°
2026-05-04 21:21 38.99061 -78.83124 33834 ft 416 kts 246°
2026-05-04 21:21 38.97718 -78.86417 34132 ft 417 kts 246°
2026-05-04 21:22 38.96373 -78.89715 34413 ft 417 kts 246°
2026-05-04 21:22 38.95020 -78.93015 34710 ft 417 kts 245°
2026-05-04 21:22 38.93686 -78.96261 35015 ft 416 kts 245°
2026-05-04 21:22 38.92335 -78.99544 35322 ft 416 kts 245°
2026-05-04 21:23 38.90989 -79.02823 35616 ft 415 kts 245°
2026-05-04 21:23 38.89644 -79.06101 35875 ft 415 kts 245°
2026-05-04 21:23 38.86955 -79.12626 35926 ft 413 kts 245°
2026-05-04 21:24 38.84354 -79.19172 35910 ft 410 kts 252°
2026-05-04 21:24 38.82877 -79.26163 35928 ft 406 kts 260°
2026-05-04 21:25 38.81617 -79.33226 35936 ft 406 kts 259°
2026-05-04 21:25 38.80355 -79.40230 35939 ft 406 kts 259°
2026-05-04 21:26 38.79086 -79.47280 35924 ft 406 kts 259°
2026-05-04 21:26 38.77804 -79.54325 35934 ft 406 kts 259°
2026-05-04 21:27 38.76740 -79.60177 35939 ft 406 kts 259°
2026-05-04 21:27 38.75452 -79.67212 35945 ft 406 kts 259°
2026-05-04 21:28 38.73950 -79.75378 35949 ft 405 kts 259°
2026-05-04 21:28 38.72874 -79.81268 35940 ft 405 kts 259°
2026-05-04 21:29 38.71591 -79.88247 35939 ft 406 kts 259°
2026-05-04 21:29 38.70283 -79.95270 35937 ft 406 kts 259°
2026-05-04 21:30 38.68969 -80.02296 35927 ft 406 kts 259°
2026-05-04 21:30 38.67441 -80.10504 35931 ft 406 kts 259°
2026-05-04 21:31 38.65687 -80.19840 35913 ft 405 kts 259°
2026-05-04 21:32 38.64373 -80.26806 35917 ft 406 kts 259°
2026-05-04 21:32 38.63046 -80.33825 35919 ft 406 kts 259°
2026-05-04 21:33 38.61718 -80.40839 35913 ft 406 kts 259°
2026-05-04 21:33 38.60385 -80.47850 35900 ft 406 kts 258°
2026-05-04 21:34 38.59045 -80.54869 35893 ft 406 kts 258°
2026-05-04 21:34 38.57713 -80.61833 35892 ft 406 kts 258°
2026-05-04 21:35 38.56368 -80.68839 35898 ft 406 kts 258°
2026-05-04 21:35 38.55018 -80.75843 35899 ft 406 kts 258°
2026-05-04 21:36 38.53663 -80.82847 35897 ft 406 kts 258°
2026-05-04 21:36 38.52294 -80.89841 35888 ft 406 kts 258°
2026-05-04 21:37 38.50925 -80.96835 35893 ft 406 kts 258°
2026-05-04 21:37 38.49561 -81.03822 35906 ft 406 kts 258°
2026-05-04 21:38 38.48202 -81.10755 35900 ft 405 kts 258°
2026-05-04 21:38 38.46825 -81.17733 35900 ft 405 kts 258°
2026-05-04 21:39 38.45447 -81.24707 35900 ft 405 kts 258°
2026-05-04 21:39 38.44068 -81.31672 35902 ft 405 kts 258°
2026-05-04 21:40 38.42685 -81.38631 35913 ft 405 kts 258°
2026-05-04 21:40 38.41298 -81.45579 35915 ft 404 kts 258°
2026-05-04 21:41 38.39917 -81.52473 35916 ft 404 kts 258°
2026-05-04 21:41 38.38524 -81.59419 35918 ft 404 kts 258°
2026-05-04 21:42 38.37126 -81.66356 35914 ft 404 kts 258°
2026-05-04 21:42 38.35723 -81.73285 35902 ft 403 kts 258°
2026-05-04 21:43 38.34099 -81.80126 35917 ft 404 kts 253°
2026-05-04 21:43 38.32209 -81.86861 35922 ft 404 kts 253°
2026-05-04 21:44 38.30329 -81.93550 35924 ft 404 kts 253°
2026-05-04 21:44 38.28447 -82.00282 35921 ft 403 kts 253°
2026-05-04 21:45 38.26558 -82.07003 35919 ft 403 kts 253°
2026-05-04 21:45 38.24660 -82.13714 35913 ft 403 kts 253°
2026-05-04 21:46 38.22758 -82.20425 35914 ft 403 kts 253°
2026-05-04 21:46 38.20860 -82.27128 35915 ft 403 kts 253°
2026-05-04 21:47 38.18969 -82.33784 35914 ft 403 kts 253°
2026-05-04 21:47 38.17063 -82.40475 35911 ft 403 kts 252°
2026-05-04 21:48 38.15147 -82.47165 35900 ft 403 kts 252°
2026-05-04 21:48 38.13230 -82.53854 35899 ft 403 kts 252°
2026-05-04 21:49 38.11308 -82.60544 35901 ft 403 kts 252°
2026-05-04 21:49 38.09388 -82.67225 35902 ft 403 kts 252°
2026-05-04 21:50 38.07470 -82.73862 35902 ft 403 kts 252°
2026-05-04 21:50 38.05540 -82.80533 35905 ft 403 kts 252°
2026-05-04 21:51 38.03608 -82.87204 35910 ft 402 kts 252°
2026-05-04 21:51 38.01675 -82.93861 35909 ft 402 kts 252°
2026-05-04 21:52 37.99735 -83.00514 35908 ft 402 kts 252°
2026-05-04 21:52 37.97799 -83.07116 35890 ft 402 kts 252°
2026-05-04 21:53 37.95853 -83.13755 35894 ft 401 kts 252°
2026-05-04 21:53 37.93912 -83.20383 35896 ft 401 kts 252°
2026-05-04 21:54 37.91967 -83.27006 35901 ft 401 kts 252°
2026-05-04 21:54 37.90016 -83.33613 35902 ft 401 kts 252°
2026-05-04 21:55 37.88057 -83.40219 35906 ft 401 kts 251°
2026-05-04 21:55 37.86107 -83.46770 35888 ft 401 kts 251°
2026-05-04 21:56 37.84152 -83.53373 35888 ft 400 kts 252°
2026-05-04 21:56 37.82189 -83.59960 35901 ft 400 kts 251°
2026-05-04 21:57 37.80223 -83.66539 35907 ft 400 kts 251°
2026-05-04 21:57 37.78252 -83.73105 35879 ft 399 kts 252°
2026-05-04 21:58 37.76287 -83.79653 35897 ft 398 kts 252°
2026-05-04 21:58 37.74337 -83.86134 35901 ft 397 kts 252°
2026-05-04 21:59 37.72370 -83.92646 35907 ft 396 kts 251°
2026-05-04 21:59 37.70407 -83.99142 35912 ft 396 kts 251°
2026-05-04 22:00 37.68448 -84.05634 35914 ft 395 kts 251°